Current Weather Conditions: station 46145

sailwx.info

Last reported at 2014-Sep-22 21:12 UTC.
Time now 2015-Apr-19 12:36 UTC

Location: N 54°24' W 132°24'.
View on Google Maps.

See reports from other nearby stations

  
Tides and Currents Weather Stations Pressure Air Temp Water Temp Dewpoint Dewpoint Depression Visibility Wind Speed Wind Dir Waves Ship Positions
date/time (UTC)wind fromknots sea level pressurealtimeterstation pressurevisibilityair tempwater tempwave heightnotes
2015-Apr-19 11:00 130 17 gusting 23 7.9 8.8 1.7
2015-Apr-19 10:00 140 13 gusting 17 8.1 8.8 1.6
2015-Apr-19 09:00 140 13 gusting 17 8.2 8.8 1.6
2015-Apr-19 08:00 140 11 gusting 15 8.2 8.7 1.9
2015-Apr-19 07:00 150 13 gusting 15 8.3 8.8 2.1
2015-Apr-19 06:00 140 13 gusting 17 8.5 8.8 2.1
2015-Apr-19 05:00 130 13 gusting 17 8.7 8.9 2.3
2015-Apr-19 04:00 130 11 gusting 15 9.0 8.9 2.5
2015-Apr-19 03:00 130 11 gusting 15 9.0 8.9 2.0
2015-Apr-19 02:00 130 13 gusting 15 9.1 8.9 1.6
2015-Apr-19 01:00 110 13 gusting 15 9.0 9.0 1.5
2015-Apr-19 00:00 110 13 gusting 15 9.0 9.0 1.3
2015-Apr-18 23:00 100 13 gusting 15 8.9 9.0 1.2
2015-Apr-18 22:00 100 11 gusting 13 8.9 9.0 1.1
2015-Apr-18 21:00 110 7 gusting 11 8.9 9.0 1.0
2015-Apr-18 20:00 140 9 gusting 11 8.8 9.0 1.0
2015-Apr-18 19:00 150 9 gusting 11 8.3 8.8 1.0
2015-Apr-18 18:00 160 9 gusting 9 8.0 8.7 1.1
2015-Apr-18 17:00 140 9 gusting 11 8.0 8.6 1.2
2015-Apr-18 16:00 140 11 gusting 13 7.6 8.6 1.1
2015-Apr-18 15:00 150 9 gusting 11 7.8 8.6 1.1
2015-Apr-18 14:00 150 9 gusting 11 7.5 8.6 1.2
2015-Apr-18 13:00 170 9 gusting 11 7.5 8.7 1.2
2015-Apr-18 12:00 160 11 gusting 11 7.7 8.7 1.1
2015-Apr-18 11:00 160 9 gusting 11 7.8 8.7 1.2
2015-Apr-18 10:00 170 9 gusting 11 7.7 8.8 1.3
2015-Apr-18 09:00 160 11 gusting 13 7.7 8.8 1.3
2015-Apr-18 08:00 170 11 gusting 11 7.6 8.8 1.4
2015-Apr-18 06:00 220 7 gusting 9 7.8 8.8 1.3
2015-Apr-18 05:00 240 7 gusting 7 7.8 8.8 1.6
2015-Apr-18 04:00 280 7 gusting 7 7.8 8.7 1.8
2015-Apr-18 03:00 280 9 gusting 11 7.9 8.8 1.7
2015-Apr-18 02:00 280 9 gusting 13 8.1 8.9 1.7
2015-Apr-18 01:00 280 9 gusting 13 8.1 8.9 1.8
2015-Apr-18 00:00 280 11 gusting 13 8.1 8.9 1.8
2015-Apr-17 23:00 280 11 gusting 13 7.9 8.8 1.9
2015-Apr-17 22:00 280 11 gusting 15 7.8 8.8 2.0
2015-Apr-17 21:00 270 11 gusting 13 7.7 8.8 2.4
2015-Apr-17 20:00 260 11 gusting 13 7.5 8.7 2.2
2015-Apr-17 19:00 270 11 gusting 15 7.7 8.7 2.0
2015-Apr-17 18:00 280 13 gusting 15 7.6 8.7 2.1
2015-Apr-17 17:00 290 11 gusting 15 7.5 8.6 2.2
2015-Apr-17 16:00 290 11 gusting 15 7.3 8.5 2.1
2015-Apr-17 15:00 300 13 gusting 23 6.5 8.5 2.3
2015-Apr-17 14:00 290 11 gusting 15 6.7 8.5 2.2
2015-Apr-17 13:00 280 13 gusting 15 6.9 8.5 2.1
2015-Apr-17 12:00 270 13 gusting 19 6.3 8.5 2.6